TimeEDT,TemperatureF,Dew PointF,Humidity,Sea Level PressureIn,VisibilityMPH,Wind Direction,Wind SpeedMPH,Gust SpeedMPH,PrecipitationIn,Events,Conditions,WindDirDegrees,DateUTC
12:15 AM,66.2,60.8,83,29.61,10.0,SSW,16.1,21.9,N/A,,Overcast,200,2013-11-01 04:15:00
12:35 AM,68.0,60.8,78,29.61,10.0,SSW,15.0,20.7,N/A,,Overcast,210,2013-11-01 04:35:00
12:55 AM,68.0,60.8,78,29.62,10.0,SW,12.7,19.6,N/A,,Overcast,220,2013-11-01 04:55:00
1:15 AM,69.8,59.0,68,29.62,10.0,SW,13.8,23.0,N/A,Rain,Light Rain,230,2013-11-01 05:15:00
1:35 AM,68.0,59.0,73,29.61,10.0,SW,11.5,23.0,N/A,Rain,Light Rain,230,2013-11-01 05:35:00
1:55 AM,62.6,55.4,77,29.67,10.0,WSW,24.2,39.1,0.12,Rain,Rain,250,2013-11-01 05:55:00
2:15 AM,60.8,53.6,77,29.66,10.0,SW,12.7,19.6,0.01,,Light Drizzle,220,2013-11-01 06:15:00
2:35 AM,59.0,53.6,82,29.65,10.0,WSW,12.7,-,0.01,Rain,Light Rain,240,2013-11-01 06:35:00
2:55 AM,60.8,57.2,88,29.68,10.0,WSW,18.4,27.6,0.02,Rain,Light Rain,250,2013-11-01 06:55:00
3:15 AM,60.8,57.2,88,29.68,10.0,WSW,13.8,19.6,0.01,Rain,Light Rain,250,2013-11-01 07:15:00
3:35 AM,60.8,55.4,82,29.69,10.0,West,9.2,-,0.01,,Scattered Clouds,270,2013-11-01 07:35:00
3:55 AM,60.8,51.8,72,29.70,10.0,West,16.1,21.9,0.01,,Clear,270,2013-11-01 07:55:00
4:15 AM,59.0,51.8,77,29.71,10.0,West,10.4,19.6,N/A,,Scattered Clouds,280,2013-11-01 08:15:00
4:35 AM,59.0,51.8,77,29.73,10.0,West,12.7,20.7,N/A,,Overcast,270,2013-11-01 08:35:00
4:55 AM,57.2,51.8,82,29.73,10.0,West,9.2,-,N/A,,Overcast,260,2013-11-01 08:55:00
5:15 AM,57.2,51.8,82,29.74,10.0,West,10.4,-,N/A,,Overcast,260,2013-11-01 09:15:00
5:35 AM,57.2,51.8,82,29.75,10.0,West,8.1,-,N/A,Rain,Light Rain,260,2013-11-01 09:35:00
5:55 AM,57.2,51.8,82,29.75,10.0,West,9.2,-,N/A,,Overcast,260,2013-11-01 09:55:00
6:15 AM,57.2,50.0,77,29.75,10.0,West,8.1,-,N/A,,Mostly Cloudy,260,2013-11-01 10:15:00
6:35 AM,55.4,50.0,82,29.76,10.0,West,10.4,-,N/A,,Mostly Cloudy,260,2013-11-01 10:35:00
6:55 AM,55.4,50.0,82,29.77,10.0,West,6.9,-,N/A,,Overcast,260,2013-11-01 10:55:00
7:15 AM,55.4,50.0,82,29.78,10.0,West,8.1,-,N/A,,Overcast,260,2013-11-01 11:15:00
7:35 AM,55.4,50.0,82,29.79,10.0,WSW,9.2,-,N/A,,Overcast,250,2013-11-01 11:35:00
7:55 AM,55.4,50.0,82,29.80,10.0,WSW,10.4,-,N/A,,Overcast,250,2013-11-01 11:55:00
8:15 AM,55.4,50.0,82,29.81,10.0,West,9.2,-,N/A,,Overcast,270,2013-11-01 12:15:00
8:35 AM,55.4,50.0,82,29.81,10.0,West,10.4,-,N/A,,Overcast,260,2013-11-01 12:35:00
8:55 AM,55.4,50.0,82,29.81,10.0,WSW,10.4,-,N/A,,Overcast,250,2013-11-01 12:55:00
9:15 AM,55.4,50.0,82,29.83,10.0,West,9.2,-,N/A,,Mostly Cloudy,260,2013-11-01 13:15:00
9:35 AM,55.4,48.2,77,29.83,10.0,West,10.4,-,N/A,,Scattered Clouds,260,2013-11-01 13:35:00
9:55 AM,57.2,50.0,77,29.83,10.0,West,10.4,-,N/A,,Clear,260,2013-11-01 13:55:00
10:15 AM,57.2,48.2,72,29.83,10.0,West,10.4,-,N/A,,Clear,260,2013-11-01 14:15:00
10:35 AM,57.2,50.0,77,29.82,10.0,West,5.8,-,N/A,,Clear,260,2013-11-01 14:35:00
10:55 AM,59.0,46.4,63,29.82,10.0,West,15.0,-,N/A,,Scattered Clouds,260,2013-11-01 14:55:00
11:15 AM,59.0,46.4,63,29.82,10.0,West,10.4,-,N/A,,Scattered Clouds,270,2013-11-01 15:15:00
11:35 AM,60.8,46.4,59,29.82,10.0,West,11.5,-,N/A,,Clear,270,2013-11-01 15:35:00
11:55 AM,60.8,46.4,59,29.81,10.0,SW,10.4,-,N/A,,Clear,230,2013-11-01 15:55:00
12:15 PM,60.8,42.8,52,29.82,10.0,SW,10.4,-,N/A,,Clear,220,2013-11-01 16:15:00
12:35 PM,62.6,44.6,52,29.81,10.0,WSW,11.5,-,N/A,,Clear,240,2013-11-01 16:35:00
12:55 PM,62.6,44.6,52,29.81,10.0,West,12.7,16.1,N/A,,Clear,260,2013-11-01 16:55:00
1:15 PM,62.6,42.8,48,29.79,10.0,West,8.1,-,N/A,,Scattered Clouds,270,2013-11-01 17:15:00
1:35 PM,62.6,42.8,48,29.78,10.0,WSW,9.2,-,N/A,,Clear,240,2013-11-01 17:35:00
1:55 PM,64.4,42.8,45,29.78,10.0,WSW,12.7,17.3,N/A,,Clear,240,2013-11-01 17:55:00
2:15 PM,64.4,42.8,45,29.77,10.0,SW,9.2,18.4,N/A,,Clear,230,2013-11-01 18:15:00
2:35 PM,64.4,41.0,42,29.76,10.0,WSW,16.1,-,N/A,,Scattered Clouds,240,2013-11-01 18:35:00
2:55 PM,64.4,41.0,42,29.76,10.0,West,15.0,18.4,N/A,,Scattered Clouds,260,2013-11-01 18:55:00
3:15 PM,66.2,41.0,40,29.76,10.0,SW,10.4,19.6,N/A,,Mostly Cloudy,230,2013-11-01 19:15:00
3:35 PM,62.6,41.0,45,29.76,10.0,West,8.1,11.5,N/A,,Mostly Cloudy,260,2013-11-01 19:35:00
3:55 PM,64.4,41.0,42,29.75,10.0,WSW,11.5,17.3,N/A,,Mostly Cloudy,250,2013-11-01 19:55:00
4:15 PM,64.4,42.8,45,29.75,10.0,West,6.9,-,N/A,,Mostly Cloudy,280,2013-11-01 20:15:00
5:55 PM,62.6,41.0,45,29.76,10.0,West,6.9,-,N/A,,Scattered Clouds,260,2013-11-01 21:55:00
6:15 PM,60.8,41.0,48,29.76,10.0,West,8.1,-,N/A,,Scattered Clouds,260,2013-11-01 22:15:00
6:35 PM,59.0,42.8,55,29.76,10.0,WSW,4.6,-,N/A,,Clear,240,2013-11-01 22:35:00
6:55 PM,59.0,41.0,51,29.76,10.0,West,4.6,-,N/A,,Clear,270,2013-11-01 22:55:00
7:15 PM,57.2,41.0,55,29.77,10.0,WSW,3.5,-,N/A,,Clear,250,2013-11-01 23:15:00
7:35 PM,55.4,41.0,58,29.78,10.0,WSW,3.5,-,N/A,,Clear,240,2013-11-01 23:35:00
7:55 PM,55.4,42.8,63,29.78,10.0,Calm,Calm,-,N/A,,Clear,0,2013-11-01 23:55:00
8:15 PM,55.4,42.8,63,29.79,10.0,Calm,Calm,-,N/A,,Scattered Clouds,0,2013-11-02 00:15:00
8:35 PM,55.4,42.8,63,29.79,10.0,Calm,Calm,-,N/A,,Overcast,0,2013-11-02 00:35:00
8:55 PM,53.6,42.8,67,29.79,10.0,Calm,Calm,-,N/A,,Overcast,0,2013-11-02 00:55:00
9:15 PM,53.6,42.8,67,29.79,10.0,Calm,Calm,-,N/A,,Overcast,0,2013-11-02 01:15:00
9:35 PM,53.6,44.6,72,29.79,10.0,Calm,Calm,-,N/A,,Overcast,0,2013-11-02 01:35:00
9:55 PM,53.6,42.8,67,29.79,10.0,Calm,Calm,-,N/A,,Mostly Cloudy,0,2013-11-02 01:55:00
10:15 PM,53.6,42.8,67,29.79,10.0,Calm,Calm,-,N/A,,Overcast,0,2013-11-02 02:15:00
10:35 PM,53.6,44.6,72,29.81,10.0,Calm,Calm,-,N/A,,Mostly Cloudy,0,2013-11-02 02:35:00
10:55 PM,53.6,44.6,72,29.81,10.0,WNW,3.5,-,N/A,,Mostly Cloudy,290,2013-11-02 02:55:00
11:15 PM,53.6,42.8,67,29.83,10.0,West,6.9,-,N/A,,Scattered Clouds,270,2013-11-02 03:15:00
11:35 PM,53.6,41.0,62,29.83,10.0,West,3.5,-,N/A,,Clear,280,2013-11-02 03:35:00
11:55 PM,53.6,41.0,62,29.84,10.0,West,3.5,-,N/A,,Mostly Cloudy,270,2013-11-02 03:55:00